Lake Fork, ID

3:59 PM MDT on August 29, 2016 (GMT -0600)
McCall

Weather History for KMYL - September, 2012

Change the Weather History Date:

Saturday, September 8, 2012

  Actual Average Record
Temperature  
Mean Temperature 60 °F 53 °F  
Max Temperature 81 °F 70 °F 87 °F (1944)
Min Temperature 38 °F 36 °F 25 °F (1988)
Degree Days  
Heating Degree Days 5 12  
Month to date heating degree days 58 84  
Since 1 July heating degree days 128 412  
Cooling Degree Days 0 0  
Month to date cooling degree days 0 0  
Year to date cooling degree days 172 25  
Growing Degree Days 9 (Base 50)    
Moisture  
Dew Point 30 °F    
Average Humidity 43    
Maximum Humidity 76    
Minimum Humidity 10    
Precipitation  
Precipitation 0.00 in 0.03 in 1.42 in (1970)
Month to date precipitation T 0.22  
Year to date precipitation 18.14 13.26  
Sea Level Pressure  
Sea Level Pressure 30.16 in    
Wind  
Wind Speed 3 mph (SE)    
Max Wind Speed 10 mph    
Max Gust Speed 14 mph    
Visibility 10 miles    
Events      
T = Trace of Precipitation, MM = Missing Value Source: NWS Daily Summary

Daily Weather History Graph

Daily Weather History Graph

Search for Another Location

Airport or City:

Trip Planner

Search our weather history database for the weather conditions in past years. The results will help you decide how hot, cold, wet, or windy it might be!

Date:

Astronomy

Sep. 08, 2012 Rise Set
Actual Time 7:15 AM MDT 8:07 PM MDT
Civil Twilight 6:45 AM MDT 8:37 PM MDT
Nautical Twilight 6:10 AM MDT 9:12 PM MDT
Astronomical Twilight 5:33 AM MDT 9:49 PM MDT
Moon No Moon Rise 3:19 PM MDT (9/8)
Length of Visible Light 13h 51m
Length of Day
12h 51m
Waning Gibbous, 48% of the Moon is Illuminated
Sep 8
Waning Gibbous
Sep 15
New
Sep 22
First Quarter
Sep 29
Full
Oct 8
Last Quarter

Hourly Weather History & Observations

Time (MDT) Temp. Dew Point Humidity Pressure Visibility Wind Dir Wind Speed Gust Speed Precip Events Conditions
12:51 AM 51.1 °F 30.0 °F 44% 30.22 in 10.0 mi Calm Calm - N/A   Clear
1:51 AM 48.0 °F 27.0 °F 44% 30.22 in 10.0 mi Calm Calm - N/A   Clear
2:51 AM 46.0 °F 30.0 °F 54% 30.21 in 10.0 mi Calm Calm - N/A   Clear
3:51 AM 44.1 °F 28.9 °F 55% 30.20 in 10.0 mi Calm Calm - N/A   Clear
4:51 AM 41.0 °F 33.1 °F 73% 30.22 in 10.0 mi Calm Calm - N/A   Clear
5:51 AM 41.0 °F 28.9 °F 62% 30.23 in 10.0 mi Calm Calm - N/A   Clear
6:51 AM 37.9 °F 30.0 °F 73% 30.25 in 10.0 mi Calm Calm - N/A   Clear
7:51 AM 39.0 °F 30.9 °F 73% 30.26 in 10.0 mi Calm Calm - N/A   Clear
8:51 AM 48.9 °F 32.0 °F 52% 30.27 in 10.0 mi Calm Calm - N/A   Clear
9:51 AM 54.0 °F 34.0 °F 47% 30.26 in 10.0 mi Calm Calm - N/A   Clear
10:51 AM 61.0 °F 34.0 °F 36% 30.25 in 10.0 mi Calm Calm - N/A   Clear
11:51 AM 66.0 °F 37.0 °F 34% 30.22 in 10.0 mi Calm Calm - N/A   Clear
12:51 PM 72.0 °F 35.1 °F 26% 30.19 in 10.0 mi Calm Calm - N/A   Clear
1:51 PM 77.0 °F 17.1 °F 10% 30.16 in 10.0 mi SSW 5.8 mph - N/A   Clear
2:51 PM 78.1 °F 21.0 °F 12% 30.14 in 10.0 mi SSE 5.8 mph - N/A   Clear
3:51 PM 80.1 °F 21.9 °F 12% 30.11 in 10.0 mi Variable 6.9 mph - N/A   Clear
4:51 PM 81.0 °F 24.1 °F 12% 30.09 in 10.0 mi South 8.1 mph - N/A   Clear
5:51 PM 80.1 °F 26.1 °F 14% 30.07 in 10.0 mi South 9.2 mph - N/A   Clear
6:51 PM 79.0 °F 27.0 °F 15% 30.07 in 10.0 mi SE 6.9 mph - N/A   Clear
7:51 PM 75.0 °F 30.0 °F 19% 30.07 in 10.0 mi Calm Calm - N/A   Clear
8:51 PM 64.0 °F 32.0 °F 30% 30.06 in 10.0 mi ENE 3.5 mph - N/A   Clear
9:51 PM 63.0 °F 34.0 °F 34% 30.04 in 10.0 mi North 4.6 mph - N/A   Clear
10:51 PM 55.9 °F 33.1 °F 42% 30.03 in 10.0 mi ENE 4.6 mph - N/A   Clear
11:51 PM 53.1 °F 32.0 °F 45% 30.02 in 10.0 mi NE 4.6 mph - N/A   Clear